Wind_Speed
51 52 54 54 51 48 47 46 43 43 42 42 44 46 45 43 41 40 38 36 34 32 31 30 29 29 28 27 27 25 23 24 27 31 33 33 32 30 30 29 29 31 32 33 33 33 31 30 28 26 28 33 33 30 29 27 24 23 22 21 22 21 19 14 8 9 10 10 12 14 12 10 8 9 11 11 13 14 14 14 13 12 11 12 12 12 13 13
52 53 55 54 53 49 46 47 45 44 43 43 43 45 45 43 42 41 39 36 34 32 31 29 28 27 27 26 26 26 24 24 27 31 33 33 31 29 29 29 29 30 30 32 33 34 34 32 30 27 27 33 35 32 30 28 26 24 23 23 23 22 20 14 10 10 11 10 10 12 11 9 8 8 10 12 13 14 15 15 14 13 13 13 13 12 13 13
54 55 55 52 52 51 47 47 47 45 44 43 43 45 45 43 42 41 39 37 34 32 30 28 27 27 27 27 27 26 25 26 29 30 30 31 30 28 27 28 28 28 28 29 32 35 36 34 31 28 29 33 34 34 32 30 27 25 24 24 23 22 20 15 12 12 13 13 12 12 11 10 10 10 11 12 12 14 15 15 14 13 12 13 13 13 13 13
54 53 54 52 51 53 51 48 48 46 44 42 42 44 46 44 41 41 39 37 34 32 30 27 27 27 27 27 27 27 26 27 29 26 26 29 28 27 26 26 27 26 26 27 29 34 35 34 32 30 31 34 35 34 34 31 27 24 25 26 23 21 20 15 11 12 13 13 13 13 13 13 12 12 13 13 14 14 14 14 14 13 13 13 14 13 13 14
52 51 52 52 50 53 53 51 49 47 44 41 42 44 45 45 42 40 39 36 34 32 29 27 27 28 28 29 29 27 27 26 26 25 26 28 27 25 26 26 27 28 28 28 29 32 35 35 34 32 32 35 36 35 36 34 27 24 26 27 24 20 19 14 9 10 12 13 14 14 13 13 13 14 13 14 15 12 10 12 14 15 15 15 16 15 15 15
46 49 50 51 51 50 51 52 50 47 45 41 41 44 45 45 43 40 39 37 34 32 28 27 28 30 31 32 29 27 28 24 22 26 27 26 25 25 26 27 27 28 28 28 28 31 33 35 36 36 35 35 37 38 38 35 26 23 26 28 26 21 18 14 11 12 14 15 14 13 12 12 14 14 14 14 12 10 12 14 15 16 17 17 17 18 17 16
43 42 43 49 51 48 51 54 51 47 45 42 40 43 45 46 44 41 39 37 35 31 29 29 30 33 34 32 29 28 30 24 19 24 26 24 25 25 25 25 24 25 25 25 26 28 29 32 36 40 39 36 39 39 40 38 27 23 26 26 26 23 17 14 13 14 16 16 13 11 12 13 13 13 14 13 12 14 16 16 16 17 17 17 18 18 18 18
47 39 37 46 50 48 51 52 51 49 46 43 40 42 45 46 45 42 40 38 35 32 30 31 33 34 33 30 30 30 31 26 19 20 25 26 26 26 26 24 23 22 22 23 24 25 24 26 30 37 40 38 39 39 41 39 28 23 26 24 25 25 19 14 13 15 17 16 13 12 14 13 13 13 13 11 12 15 15 15 16 16 16 16 17 17 18 18
55 45 38 44 46 45 49 48 48 50 47 44 42 42 45 47 46 43 41 39 36 33 32 34 35 36 35 30 31 32 29 27 23 19 23 28 27 27 26 22 21 21 21 22 23 25 24 24 25 30 37 39 39 39 41 37 27 22 23 22 24 26 22 15 13 16 18 17 16 14 15 14 14 14 13 11 13 14 14 15 15 14 15 16 17 18 18 18
58 53 43 42 41 42 47 45 46 49 47 45 44 43 44 47 46 44 42 39 37 35 34 36 36 36 37 33 33 33 28 28 26 19 20 27 29 26 24 21 19 19 20 20 21 24 26 25 23 25 32 37 38 39 40 35 28 21 18 21 25 27 26 20 15 16 18 19 17 16 16 15 15 15 13 12 13 13 13 14 14 15 15 16 17 17 17 18
55 57 50 41 38 45 49 43 45 50 48 46 45 43 43 46 46 44 42 39 38 37 36 37 37 38 38 34 35 33 30 31 26 19 20 25 26 23 20 18 16 16 17 18 18 19 22 25 25 26 29 35 37 39 37 31 26 19 13 19 25 28 27 22 17 16 19 20 18 17 16 16 17 16 13 11 11 11 12 13 15 15 15 16 17 17 18 17
48 54 55 47 40 45 48 42 42 49 50 47 45 44 42 45 47 45 42 40 39 39 38 38 39 40 38 36 37 33 31 31 26 22 23 24 24 22 18 15 13 13 13 13 14 13 16 21 26 27 29 35 38 38 34 26 21 15 12 18 23 28 29 24 18 16 19 21 19 18 18 20 20 15 11 12 11 10 12 13 14 14 14 15 16 17 17 17
43 46 52 53 46 44 45 41 41 47 51 47 45 45 43 45 48 45 43 42 40 40 40 41 42 42 40 39 38 34 31 31 28 26 27 26 26 25 22 19 16 14 12 9 9 10 12 16 21 24 27 32 35 38 33 22 15 14 15 18 21 25 29 26 19 17 19 20 20 20 21 23 20 13 10 12 12 12 13 12 12 13 13 14 15 16 16 16
41 42 46 52 51 47 44 40 39 46 50 47 45 46 44 45 48 47 44 42 42 42 43 44 44 43 42 40 37 34 32 34 31 29 29 27 27 26 25 24 21 18 15 11 10 11 12 14 17 21 25 27 31 34 32 21 12 13 15 20 22 23 26 27 22 17 19 20 20 21 23 24 18 13 13 14 13 13 13 12 13 13 14 14 14 15 15 15
40 40 42 47 50 50 46 41 38 45 50 48 47 48 45 46 48 48 45 42 44 44 45 47 46 45 44 42 39 35 34 37 34 31 30 27 24 23 24 25 24 21 17 15 13 12 14 16 17 21 24 24 28 33 30 20 13 13 16 20 24 24 23 25 24 20 19 20 21 21 22 23 19 15 15 16 16 15 15 14 14 15 14 14 14 14 15 15
41 41 41 43 46 49 51 47 40 43 50 48 49 50 48 48 48 49 47 45 44 42 45 47 48 48 45 43 41 38 39 40 37 33 31 28 22 20 23 25 24 22 20 17 12 10 12 16 17 20 23 26 34 37 27 18 17 16 18 20 22 25 22 22 24 23 21 19 21 22 22 21 19 18 18 17 16 15 16 16 16 16 15 15 15 15 15 16
43 43 43 43 44 48 53 53 43 40 48 51 50 51 50 49 49 48 48 46 43 42 44 46 49 48 42 43 44 42 43 41 39 36 33 28 23 22 24 25 24 22 22 18 12 11 12 13 15 21 26 31 38 37 25 21 23 20 20 20 18 21 22 21 22 24 24 22 22 23 25 24 19 17 18 19 18 16 15 17 16 15 15 16 16 16 16 17
46 47 46 46 45 47 52 54 46 38 48 54 50 51 52 49 48 47 47 47 45 42 40 43 47 45 43 46 47 45 43 41 38 36 32 30 27 25 25 23 23 24 24 20 17 18 17 13 14 22 29 33 38 38 31 29 28 22 19 18 17 18 20 22 21 21 23 25 25 25 28 29 24 19 18 18 20 19 16 16 16 15 15 16 17 17 17 17
48 49 49 49 49 49 50 53 48 39 47 54 49 49 51 49 46 45 46 49 51 47 42 47 52 50 49 49 48 45 43 40 37 36 36 34 31 29 29 27 26 26 26 25 24 25 23 18 17 25 33 37 38 38 34 28 21 18 16 15 16 16 19 21 20 19 20 23 26 28 29 29 26 24 22 20 20 21 20 19 18 17 18 18 18 17 17 17
52 52 52 52 51 50 49 50 48 41 45 53 53 52 53 52 48 44 47 51 53 51 48 50 54 55 51 46 45 44 43 41 38 39 38 35 34 34 34 32 30 30 29 28 28 28 27 26 27 29 34 38 37 33 28 21 16 15 14 15 16 16 19 20 20 21 21 22 24 26 28 29 29 27 26 25 24 22 21 22 22 21 20 20 19 17 16 16
55 55 55 55 53 50 48 48 49 44 45 53 58 58 58 61 61 60 60 55 51 52 49 47 48 52 51 44 44 45 44 43 41 40 37 34 38 38 37 37 36 38 34 28 28 30 30 32 31 26 27 33 34 28 21 18 18 17 15 13 13 15 17 18 21 23 23 25 25 24 26 29 29 27 26 27 29 27 23 22 22 22 22 21 20 18 17 17
58 58 58 57 54 53 49 47 49 45 46 55 60 59 57 62 68 72 69 59 53 53 50 46 44 46 47 43 43 45 44 43 42 39 33 35 42 40 39 40 39 39 37 33 33 34 35 36 32 22 20 28 31 25 19 17 18 20 19 17 14 13 14 18 22 23 22 23 24 25 27 28 27 27 26 26 28 30 28 27 26 24 24 23 22 20 19 18
60 60 60 58 57 56 50 48 49 48 55 66 65 60 57 59 65 67 64 58 54 51 47 46 44 42 43 41 39 43 44 42 41 38 34 38 43 43 41 41 39 37 38 40 39 40 38 34 30 22 17 24 28 22 18 19 20 22 24 23 19 14 13 18 21 22 22 21 22 23 25 27 26 25 28 27 26 29 29 29 30 30 29 27 25 23 22 21
62 62 62 60 59 59 54 51 52 51 59 68 65 62 60 58 62 64 59 52 49 48 46 44 43 40 42 42 39 40 43 42 40 37 37 41 43 42 42 40 38 37 39 41 41 41 37 27 24 23 19 23 26 23 21 21 21 23 25 25 23 16 14 16 18 20 21 20 20 20 22 27 29 27 28 26 24 27 29 30 31 32 31 29 27 26 24 23
65 64 63 62 61 61 57 54 56 56 58 61 60 60 59 57 58 59 53 45 41 42 44 45 43 39 40 42 41 40 41 43 41 39 39 41 42 42 40 37 38 40 39 39 41 43 39 29 23 24 23 24 24 24 24 22 22 23 24 26 24 17 12 11 15 18 18 19 19 17 14 19 25 25 25 25 26 27 29 30 31 30 29 28 27 25 24 24
68 67 66 65 64 63 60 58 59 61 60 57 52 51 54 56 53 50 44 34 32 35 38 42 41 39 41 41 42 41 38 41 44 42 41 41 39 38 37 35 37 38 36 34 37 40 40 36 30 25 25 27 26 25 25 23 22 23 23 24 24 21 15 10 12 15 15 14 15 16 13 13 19 17 13 17 23 26 28 29 30 29 28 28 27 25 24 25
70 70 68 66 66 66 66 64 63 64 62 58 52 46 49 53 48 47 36 17 19 32 35 38 38 39 42 38 40 40 34 38 45 45 44 43 39 36 35 35 35 36 34 33 34 36 39 41 37 30 27 28 30 29 26 24 24 23 21 23 24 22 19 14 10 11 13 12 11 14 16 15 21 21 15 14 17 19 23 27 28 28 27 27 26 25 25 25
73 72 70 69 69 68 67 67 67 67 62 56 53 49 49 50 46 48 34 7 11 29 33 37 36 36 40 36 35 38 32 34 44 46 45 45 43 39 36 35 35 35 34 36 37 34 35 38 38 34 31 32 33 29 25 25 24 22 19 23 23 18 17 18 14 13 14 13 12 15 15 11 17 25 21 18 19 17 17 20 22 23 24 25 26 25 25 24
75 75 73 70 70 68 65 66 65 63 59 53 51 51 52 51 46 45 30 9 14 27 30 34 36 36 40 37 34 34 31 31 40 43 41 41 42 40 37 35 34 32 33 37 38 32 30 33 34 34 35 34 31 27 26 26 24 21 19 22 23 18 16 15 15 16 13 12 14 17 16 10 12 24 24 21 23 22 17 16 17 17 17 21 23 24 24 25
78 78 75 71 71 69 68 67 64 61 60 56 51 51 51 50 47 34 14 13 23 27 28 33 37 38 40 40 36 34 31 32 36 36 33 34 37 37 36 34 31 31 33 35 36 33 30 30 33 35 36 32 28 27 27 25 24 22 21 21 20 18 17 14 14 15 10 9 15 18 18 13 8 17 22 21 22 23 21 20 19 18 16 17 18 20 23 24
81 80 77 75 74 73 74 71 70 68 65 60 53 53 53 49 46 24 7 22 31 26 31 35 36 39 40 42 42 38 34 33 34 33 32 34 36 38 36 33 33 32 33 36 37 36 32 29 32 36 37 32 29 30 29 26 26 25 24 23 18 12 12 11 10 10 6 5 9 12 16 17 13 12 15 14 13 14 16 17 18 18 19 19 19 20 21 22
82 82 79 77 75 76 76 73 74 73 68 62 54 57 57 43 30 18 15 27 30 29 38 40 39 42 41 42 43 43 41 39 36 33 34 37 38 43 42 39 41 35 32 37 38 36 33 31 31 32 35 35 32 33 33 30 30 30 27 25 17 7 5 7 5 5 7 7 7 8 10 16 21 21 20 19 16 14 14 16 17 18 18 19 20 20 20 21
83 83 80 76 76 78 77 74 77 75 69 63 56 61 58 31 15 24 33 33 28 34 44 42 43 45 44 44 43 43 43 44 43 34 32 36 38 43 44 41 44 40 35 37 36 32 27 26 31 31 33 36 34 36 37 35 34 34 32 27 18 6 3 3 3 1 6 10 11 12 10 11 18 20 21 21 19 18 19 20 20 20 19 20 20 20 19 18
83 84 80 76 76 78 78 78 80 77 70 64 62 64 50 22 17 34 43 38 31 38 47 44 44 45 44 46 43 43 44 42 43 36 32 38 41 45 47 44 45 45 40 37 35 35 26 20 29 33 31 34 36 36 36 35 35 35 33 29 24 17 9 5 4 4 8 10 11 12 8 7 9 8 10 12 10 12 16 18 19 19 19 19 19 19 18 17
82 82 79 76 76 77 79 80 80 75 68 66 68 63 42 25 30 41 44 42 36 40 46 44 46 49 46 45 43 44 45 42 40 36 35 42 46 49 52 50 49 48 43 38 34 37 32 22 28 35 33 33 36 37 36 34 32 32 32 30 29 28 20 9 7 11 11 6 6 11 12 12 11 6 5 8 10 10 11 12 12 12 12 13 14 15 16 17
82 81 78 77 78 79 80 80 78 74 68 70 68 56 45 41 46 49 51 53 48 46 50 46 48 52 46 42 44 44 44 43 43 39 38 43 46 49 52 51 52 51 48 43 35 33 30 20 22 32 32 31 33 35 36 33 29 29 32 33 30 27 22 13 8 9 7 3 6 11 16 20 19 15 14 17 18 16 15 15 14 14 15 14 13 14 15 16
84 83 79 79 81 82 82 81 80 73 68 74 69 56 54 54 52 54 56 59 56 51 55 52 48 52 48 42 45 47 43 40 42 42 42 43 44 50 54 52 53 54 51 48 40 35 32 21 19 29 33 32 32 32 34 34 30 29 32 34 29 22 22 19 8 2 3 3 6 12 17 19 15 11 10 11 13 13 14 15 16 17 16 12 11 13 15 17
84 82 79 81 83 82 82 83 82 75 71 74 68 59 60 54 49 53 53 55 55 51 55 54 47 51 54 50 50 53 49 43 43 46 44 43 43 49 57 55 53 54 51 47 40 36 34 24 20 29 34 34 33 32 33 34 33 30 28 31 29 19 19 22 12 3 3 3 4 9 15 20 20 17 11 8 8 9 10 11 12 13 13 12 12 12 13 14
82 81 81 84 84 81 81 83 83 78 74 72 64 57 55 48 45 51 52 54 56 53 53 55 50 49 53 55 54 54 53 48 49 51 46 46 45 46 55 57 53 52 51 46 39 34 34 24 17 25 33 34 33 34 35 36 34 29 22 26 32 24 18 22 20 10 5 3 4 6 7 15 26 28 23 19 17 15 15 15 15 15 17 17 16 14 13 14
85 85 85 85 86 84 83 83 84 80 74 70 65 59 54 49 46 50 52 55 58 56 54 55 55 52 50 52 52 53 54 50 51 53 48 48 48 42 48 56 55 51 49 46 39 34 34 28 20 22 29 32 33 36 38 37 34 33 27 27 32 29 19 18 22 21 14 5 3 3 5 17 27 27 25 23 18 16 16 15 14 15 17 16 13 12 11 12
87 84 84 87 88 86 84 81 83 81 72 69 66 59 54 51 47 46 49 53 56 57 56 56 55 53 51 52 51 53 55 51 51 53 48 48 48 42 43 51 55 51 46 45 42 34 32 30 24 23 28 34 36 35 35 34 35 37 37 35 36 34 27 16 12 22 24 13 8 5 7 23 33 28 27 25 19 18 17 14 13 13 14 14 12 10 10 11
87 79 82 89 90 90 88 81 80 78 71 69 65 56 50 49 45 43 46 52 55 53 52 52 52 50 50 52 53 54 56 54 53 54 52 51 51 46 41 44 50 50 46 46 44 37 32 28 24 23 27 32 32 32 33 34 36 38 38 40 37 36 37 25 13 19 24 20 20 12 11 31 40 31 29 29 22 19 17 14 13 13 13 15 12 11 12 12
84 78 81 86 88 92 89 78 76 74 67 66 64 54 48 46 43 44 48 52 54 53 49 48 49 48 47 48 51 55 55 51 52 55 53 51 50 44 38 37 43 47 48 45 44 41 35 29 27 22 20 26 29 31 34 35 37 39 40 41 37 36 38 30 21 21 21 23 24 11 11 34 40 31 31 31 25 22 17 14 16 16 16 14 11 14 14 12
82 77 79 80 81 89 87 77 75 71 60 58 58 49 44 42 41 45 51 54 54 54 52 50 50 50 49 48 48 54 54 48 49 54 52 49 48 43 38 36 38 44 49 47 45 44 36 29 27 17 6 10 17 21 30 37 39 39 39 39 38 37 35 30 25 19 17 25 27 15 17 31 30 28 31 29 26 25 20 19 20 18 16 13 16 18 16 16
81 75 76 79 79 82 82 77 77 73 62 59 56 50 46 42 40 45 51 54 54 54 53 52 50 49 50 50 47 51 55 51 47 51 52 49 46 44 41 38 37 40 44 45 45 44 39 35 35 24 11 9 13 18 29 37 38 38 39 40 39 38 37 35 30 22 22 29 30 29 32 27 21 24 24 21 23 22 19 20 22 19 17 19 21 21 20 21
80 73 73 79 81 80 77 74 75 71 65 63 58 52 49 44 42 45 49 52 53 52 51 49 49 48 48 50 50 50 54 53 47 47 51 52 48 45 44 41 38 37 37 42 45 43 40 40 42 41 36 34 34 34 37 37 37 40 42 42 41 40 39 37 34 35 35 29 30 45 47 31 23 24 20 19 23 21 18 21 23 23 23 24 24 24 25 24
75 73 75 76 73 70 69 70 70 65 61 63 59 54 52 48 47 49 51 53 53 52 49 46 49 51 50 50 52 49 49 52 50 44 47 54 52 46 44 42 39 36 35 40 45 44 42 42 43 46 46 44 40 37 35 34 36 40 40 39 41 40 40 41 43 46 39 26 29 45 46 40 40 36 28 28 29 26 25 26 26 27 27 27 28 28 27 25
71 70 75 72 65 63 64 66 69 64 59 61 58 54 52 50 51 55 55 55 55 54 51 47 48 52 51 50 50 50 49 50 51 46 44 51 53 47 43 41 40 38 36 38 43 45 44 44 44 43 42 41 37 32 31 30 30 33 34 35 37 38 42 47 50 49 43 37 40 42 40 45 47 40 36 35 31 30 31 29 29 29 28 28 29 28 26 25
73 68 71 70 64 66 69 68 69 66 63 62 56 52 53 52 53 57 57 55 55 55 54 52 52 52 52 50 48 49 51 49 50 51 48 48 51 50 45 42 41 41 39 40 43 44 42 41 42 41 39 39 37 34 33 30 27 28 30 31 33 36 42 45 46 45 43 46 49 44 43 50 48 41 41 38 34 34 35 33 34 32 30 30 29 26 25 23
76 68 70 68 62 66 70 68 68 68 66 63 56 51 54 56 56 58 57 55 56 56 57 57 55 52 51 51 48 48 50 48 48 52 51 48 50 51 48 46 45 43 40 40 41 41 39 34 35 37 36 36 38 38 35 33 31 30 28 30 34 38 42 44 44 42 42 47 47 42 45 54 53 47 45 42 40 40 40 40 40 37 34 31 28 27 25 24
73 69 71 70 65 66 67 65 67 67 66 64 58 52 53 56 58 59 57 55 56 58 59 57 55 53 48 48 49 47 46 45 43 44 46 45 46 47 47 46 45 43 42 39 38 40 38 31 30 33 31 33 38 37 34 35 32 30 33 38 41 43 43 44 44 42 43 46 43 42 50 58 54 49 45 43 41 40 40 39 39 39 37 34 31 29 26 26
69 69 72 73 66 63 63 63 65 66 67 67 61 53 52 55 57 58 55 52 53 55 56 53 52 52 48 46 48 45 41 39 36 34 34 35 38 42 42 41 42 42 42 40 38 38 38 35 32 31 29 32 34 33 35 30 20 25 43 50 48 47 43 40 40 41 42 43 43 48 55 55 50 48 46 43 40 39 39 37 35 34 34 34 34 31 28 28
Wind_Direction
202 202 201 200 202 206 206 207 210 212 212 212 211 210 209 209 210 212 211 211 213 214 215 215 213 210 206 203 206 211 212 212 211 212 217 215 211 211 213 216 219 221 223 223 225 228 232 232 226 215 207 207 209 210 207 208 209 208 209 213 213 212 209 201 209 218 217 228 224 218 212 212 220 218 213 207 207 215 223 224 223 221 208 207 212 209 209 209
200 200 201 203 202 202 205 208 210 213 213 211 211 211 210 209 210 212 211 211 212 214 214 214 211 207 203 203 205 212 215 212 212 212 213 213 211 209 213 217 220 222 223 223 224 226 227 226 223 219 212 208 209 210 207 207 210 208 208 213 213 211 210 204 215 222 221 235 233 219 210 212 224 229 225 215 212 215 221 223 220 217 208 209 214 212 212 212
198 199 200 205 206 202 205 208 209 212 213 211 211 211 210 208 210 212 211 211 212 213 214 212 209 204 201 202 205 213 215 212 213 211 211 213 211 207 211 217 221 222 221 223 224 225 227 225 220 215 213 209 207 208 207 207 210 210 209 212 212 213 214 211 219 220 220 233 239 228 217 219 225 228 230 223 219 218 220 224 223 221 213 211 213 216 215 213
197 201 200 205 208 205 207 207 207 210 212 212 211 210 210 208 209 212 211 211 211 212 213 210 207 203 200 201 207 211 208 212 214 207 208 211 208 206 211 218 225 227 225 224 225 225 226 226 221 212 211 211 206 206 208 206 209 215 212 209 211 215 215 213 223 219 213 221 233 236 229 230 234 232 231 225 222 222 224 226 224 221 216 214 214 218 217 214
194 198 199 203 207 207 210 208 205 207 210 214 213 210 209 207 208 211 212 211 211 212 211 207 204 202 201 203 205 203 200 211 211 200 203 206 206 209 216 223 228 232 233 230 229 229 225 224 223 215 210 212 206 205 208 204 207 218 213 209 212 215 214 209 211 213 210 212 220 231 235 238 240 238 236 231 228 229 230 228 224 220 214 213 212 215 218 217
194 192 196 202 206 208 211 207 205 207 208 211 214 211 208 207 207 209 210 210 211 212 208 204 202 201 204 203 199 197 198 203 202 198 202 204 209 216 221 226 228 230 234 236 234 233 230 226 225 220 213 213 209 207 208 202 205 218 212 211 215 212 212 207 199 205 208 208 216 230 238 239 239 240 243 238 230 226 223 221 221 220 216 213 212 213 215 216
202 190 190 200 205 207 208 207 207 207 206 208 212 212 209 206 206 207 208 208 209 209 206 202 199 202 204 199 195 198 198 197 198 201 203 205 210 218 222 225 226 228 232 237 238 238 238 232 227 223 216 213 211 209 208 203 201 213 211 212 216 211 210 208 202 206 207 209 217 229 236 241 241 240 243 239 227 220 221 221 221 221 219 215 214 215 214 214
213 198 189 195 202 206 206 208 209 208 206 206 209 212 211 207 205 206 207 207 207 207 204 199 199 201 198 195 197 200 198 195 195 199 202 206 211 216 222 225 227 229 232 237 239 238 237 229 223 222 217 212 211 209 207 205 201 211 214 212 214 211 210 209 203 207 213 214 215 223 236 243 241 238 238 236 228 224 223 223 224 225 223 218 215 214 215 216
223 211 196 190 196 204 207 209 209 207 207 207 207 210 211 208 205 205 206 205 204 205 202 198 200 197 189 192 201 202 198 195 198 204 206 209 213 217 222 224 225 226 228 230 231 225 221 222 218 217 216 210 211 209 205 204 200 208 220 216 212 210 212 215 207 209 217 219 217 222 235 238 236 238 234 225 223 224 222 223 224 226 227 223 217 213 213 214
232 222 206 191 188 193 201 207 210 208 207 207 206 206 208 208 205 204 205 204 201 202 201 197 198 194 185 189 202 200 193 194 203 211 210 209 211 215 218 218 222 223 221 221 221 214 213 221 216 212 213 208 209 208 203 204 197 199 220 219 212 210 213 219 218 217 221 221 220 222 231 234 234 235 231 226 226 224 220 219 218 218 220 218 217 214 212 213
237 230 216 200 187 187 193 200 207 210 208 207 206 205 205 207 206 204 204 202 199 199 199 195 195 194 187 189 201 199 191 193 199 202 202 202 203 206 209 209 210 214 215 216 219 215 213 219 215 209 208 206 207 205 202 202 193 194 217 217 215 214 215 220 221 220 221 221 219 221 227 229 231 231 228 230 232 227 225 222 216 214 212 210 212 215 214 213
234 235 226 213 198 192 193 193 200 207 208 206 205 202 203 206 206 204 204 202 197 197 197 194 194 194 190 192 198 198 194 191 186 187 192 193 191 193 197 199 200 210 216 217 223 223 218 219 214 209 207 206 206 204 199 194 191 203 222 218 219 220 219 219 216 215 217 220 221 221 225 226 226 225 221 227 228 225 227 226 223 219 214 211 211 215 217 216
226 232 230 222 211 200 196 194 196 202 206 205 203 200 201 204 205 205 204 201 197 197 195 193 194 193 193 195 196 198 194 183 178 179 185 189 189 191 193 194 197 210 220 222 231 234 229 227 217 209 206 205 208 205 193 181 197 223 225 220 222 225 224 217 213 213 213 219 222 221 225 226 223 215 213 224 223 220 226 228 229 227 223 220 215 217 219 220
220 224 228 226 220 209 201 195 193 199 203 204 203 200 201 203 205 205 204 202 198 197 195 193 194 193 196 198 195 199 189 176 177 178 180 186 192 196 196 196 200 209 221 222 233 248 248 242 226 208 202 202 207 203 186 176 206 228 224 222 223 227 227 218 213 214 213 217 222 224 231 231 224 215 218 226 224 220 224 226 227 230 228 226 221 221 222 222
216 215 221 225 223 216 206 194 193 202 204 204 203 201 200 202 204 204 203 202 200 198 196 194 195 194 199 200 196 198 187 178 182 178 178 182 189 200 200 201 205 209 215 214 224 244 243 238 224 204 197 197 199 192 180 183 210 220 221 223 223 225 226 221 218 217 215 218 222 225 234 236 229 224 223 227 229 226 224 223 223 227 228 227 224 222 224 225
214 208 211 219 221 219 210 199 196 202 205 205 204 200 199 200 201 203 203 202 199 198 197 196 195 195 199 201 197 196 189 184 185 184 189 191 188 195 199 201 201 203 206 203 211 218 213 222 217 202 196 191 190 184 178 200 224 222 221 222 224 225 223 222 221 219 217 220 225 227 233 237 233 229 227 227 230 229 226 224 222 225 227 226 225 223 224 226
212 204 204 209 214 218 215 207 198 198 203 203 200 199 200 199 200 202 203 204 199 195 198 199 196 197 202 202 200 198 191 188 188 192 200 197 190 190 195 197 193 195 198 190 189 181 182 206 210 203 195 189 187 180 181 213 223 221 224 224 225 226 223 223 224 222 222 224 228 231 235 236 232 229 229 228 228 227 223 223 222 225 228 227 225 224 224 227
210 203 202 203 206 214 217 213 205 200 202 199 196 199 200 199 199 199 201 202 199 194 197 201 198 200 206 203 202 199 192 190 191 194 196 190 187 187 188 193 191 191 189 182 181 177 181 202 212 203 193 188 185 182 189 206 210 216 227 228 226 225 226 226 226 227 227 230 232 235 239 238 234 232 233 231 229 227 222 220 221 224 229 230 228 226 226 229
209 203 203 202 203 210 216 216 210 200 201 200 196 195 196 197 196 197 201 201 200 196 194 198 197 201 207 203 202 198 191 193 194 195 195 185 182 184 182 185 188 190 186 181 185 186 188 196 204 202 194 189 186 187 195 199 202 220 235 240 237 230 231 230 230 231 232 236 237 238 243 243 238 235 235 236 235 232 227 224 225 227 231 233 233 230 230 232
210 205 204 203 201 207 212 215 212 203 202 202 193 187 187 189 188 191 202 206 206 203 198 197 195 200 207 204 201 197 191 196 197 200 206 191 180 181 180 180 183 191 191 186 187 191 194 198 203 206 202 194 189 190 196 196 206 232 241 246 245 240 238 235 232 234 234 237 240 241 245 247 243 239 238 241 244 241 234 232 234 234 235 236 235 234 234 235
211 205 204 203 200 203 206 210 212 207 207 205 193 187 188 190 190 192 198 201 206 209 205 203 199 201 207 204 200 195 193 198 197 203 212 194 180 182 181 181 184 191 194 192 188 190 198 205 208 213 212 202 194 190 188 195 216 236 243 244 248 249 245 236 232 234 236 239 241 243 246 246 245 242 240 241 245 245 240 236 237 237 237 236 233 230 233 235
211 205 203 203 199 199 200 205 210 207 208 209 200 194 195 198 199 198 197 194 198 207 209 208 205 203 205 204 201 197 197 201 199 202 204 184 181 187 186 186 190 192 192 194 194 194 202 211 212 215 219 208 197 187 183 194 214 229 238 242 249 254 250 240 233 231 234 238 241 244 249 250 249 247 243 240 242 244 242 238 237 238 239 237 234 230 234 236
210 205 203 202 197 196 194 198 207 203 199 201 200 199 200 203 204 202 201 195 193 201 206 207 207 206 205 204 202 201 201 202 200 198 191 181 185 191 191 193 195 195 193 196 199 199 204 213 211 208 215 208 197 187 189 201 211 224 235 240 245 256 262 247 233 229 234 240 243 247 253 255 252 250 246 243 244 245 243 241 238 238 240 240 239 238 239 239
209 206 204 201 196 194 190 194 203 201 195 193 194 197 200 205 207 205 203 198 193 197 202 204 206 207 208 207 204 204 204 203 201 197 188 186 190 193 197 199 199 202 202 201 204 206 212 216 206 202 206 200 196 197 202 210 217 224 232 237 240 253 269 254 233 230 235 240 243 248 259 261 255 253 250 247 248 247 243 243 241 240 242 242 242 241 240 240
208 205 203 200 196 192 188 193 201 202 198 194 191 194 198 205 208 207 203 197 194 196 197 200 203 204 206 207 206 205 204 202 201 198 193 192 194 196 199 202 206 210 207 204 208 213 220 221 206 200 202 198 199 207 209 213 223 226 226 229 234 245 265 255 233 231 234 238 241 243 256 266 261 259 256 251 248 247 244 243 244 243 244 243 241 239 238 241
207 204 202 199 196 192 188 194 202 203 199 198 196 193 198 204 207 207 201 194 197 199 196 197 197 198 201 204 206 206 206 204 199 196 196 195 197 199 198 200 208 213 210 207 210 216 220 220 213 203 201 203 206 212 212 210 220 226 222 222 231 240 249 249 234 230 230 234 239 237 235 257 266 259 250 248 246 245 245 245 245 245 244 243 240 237 236 239
205 203 200 197 194 193 190 192 199 202 201 203 203 200 200 201 203 202 194 185 206 206 202 198 194 194 197 200 205 204 205 205 198 195 197 196 196 200 201 202 205 209 210 205 205 213 215 215 215 210 207 211 211 212 212 206 214 224 220 222 235 241 240 242 242 236 236 240 242 238 234 248 264 260 248 245 246 243 242 244 246 246 245 244 241 238 237 237
203 201 198 196 194 193 191 190 194 200 206 208 206 204 200 197 200 198 187 164 210 203 204 202 196 195 193 193 200 204 206 206 200 197 196 195 195 197 203 208 209 208 208 205 204 209 212 211 212 210 210 216 216 214 210 205 212 221 220 227 238 244 241 242 251 253 249 248 245 241 238 243 262 265 262 257 254 245 237 240 246 248 246 243 241 238 238 237
201 198 195 194 194 192 192 195 197 200 205 205 203 201 199 197 197 191 184 184 194 195 201 198 195 195 190 186 189 196 199 200 200 197 194 195 197 197 201 207 212 210 208 211 211 209 211 212 211 211 213 215 215 216 214 211 213 218 224 232 237 243 246 243 248 252 249 247 246 244 240 240 266 269 265 261 259 252 241 236 239 242 242 241 239 237 237 237
198 196 192 191 192 191 193 200 204 201 199 201 202 202 204 199 188 178 176 188 185 189 194 191 193 193 187 184 185 189 189 188 191 192 191 196 197 198 201 204 210 214 211 212 214 213 213 213 212 213 216 217 215 216 216 215 217 220 226 232 233 239 242 238 238 242 247 254 250 248 245 243 267 273 267 265 267 263 255 247 242 240 239 238 234 232 233 235
195 192 190 190 190 190 192 199 204 201 196 197 198 201 202 191 178 171 163 183 182 183 185 185 188 189 186 188 190 192 190 184 182 184 190 195 195 197 200 201 203 208 211 211 211 214 215 213 212 213 214 216 215 213 210 212 215 219 225 227 224 222 223 227 233 231 236 261 252 252 249 238 234 253 266 271 272 268 261 254 247 242 240 239 236 234 233 234
192 189 190 191 190 190 190 195 200 198 194 194 194 195 191 178 175 179 162 174 180 178 182 185 185 187 189 191 194 197 195 189 183 186 195 195 193 197 199 200 199 194 200 207 206 209 213 215 215 213 212 212 211 208 205 207 211 216 222 220 210 189 188 213 226 221 231 247 247 245 243 237 241 252 263 266 265 265 265 261 254 246 243 243 242 241 240 239
188 187 189 192 191 190 191 195 198 195 192 191 191 192 186 172 179 182 168 173 183 186 191 192 190 190 186 184 189 193 192 190 186 185 198 201 198 200 202 204 203 199 199 199 199 200 206 217 219 214 211 209 209 207 204 203 205 211 216 212 200 172 113 211 235 283 257 251 243 241 245 246 251 261 269 269 267 264 261 259 258 254 249 247 246 243 243 243
186 186 188 190 192 192 192 197 197 191 189 191 189 186 180 173 184 181 177 179 183 189 193 188 184 184 181 180 184 186 186 186 186 185 194 201 201 201 203 204 205 208 205 197 196 197 195 210 215 211 209 208 208 210 210 208 206 210 217 217 213 205 190 203 213 206 237 245 232 224 230 237 235 253 274 273 263 250 249 253 256 259 257 254 252 247 244 241
185 186 186 189 192 194 194 196 195 189 188 190 187 181 175 174 180 181 183 182 178 180 183 183 180 175 176 182 183 186 187 185 186 190 195 201 204 204 204 203 203 206 205 197 196 199 198 204 209 207 208 207 206 207 211 213 208 208 213 217 220 217 210 212 217 215 223 237 223 214 225 242 243 243 250 258 258 244 242 249 247 249 252 251 250 247 242 239
186 186 188 189 191 193 194 196 195 190 189 188 183 179 179 183 186 188 190 191 188 179 171 174 178 172 172 181 183 186 190 189 187 191 199 204 208 210 208 204 204 205 206 202 194 193 197 201 206 206 206 207 207 207 210 212 210 207 207 211 218 219 216 218 221 218 217 236 235 226 239 252 258 264 258 256 263 259 251 253 249 249 253 252 251 248 244 245
187 186 188 190 190 191 193 196 196 192 191 189 182 180 186 190 193 193 193 195 195 183 170 167 173 176 174 178 185 186 188 191 190 191 198 202 207 213 211 207 206 206 209 208 200 195 196 194 200 206 206 208 209 209 211 214 214 211 207 209 213 214 218 223 223 186 188 248 246 231 244 253 252 258 260 254 258 255 247 247 246 248 251 253 256 255 250 250
184 183 187 190 189 190 193 195 196 194 191 188 184 186 190 191 193 192 192 194 188 180 173 168 173 181 178 179 185 188 188 190 192 194 199 202 208 214 211 207 207 206 208 210 206 203 199 193 195 203 205 207 208 209 210 211 215 216 213 211 208 206 212 214 213 209 202 237 268 240 244 250 244 241 247 246 242 242 239 238 240 243 249 258 266 265 260 256
179 178 183 187 187 189 192 194 197 194 189 185 185 190 189 186 191 192 194 196 188 181 177 176 181 185 184 185 185 185 189 190 191 195 199 202 208 215 213 209 206 204 205 207 207 206 202 195 191 199 202 203 206 208 207 207 209 212 214 211 210 212 212 209 211 215 202 206 255 254 243 246 248 250 254 256 256 257 258 257 256 254 252 255 259 259 259 260
175 175 179 185 187 188 190 193 195 191 187 187 190 193 191 187 192 195 198 201 193 186 185 185 186 186 186 188 188 187 189 192 194 196 199 203 206 210 213 211 207 203 202 204 207 207 205 203 197 194 198 201 205 209 210 211 210 209 210 206 208 212 210 212 219 219 219 212 204 230 257 252 253 257 258 257 258 259 260 265 267 256 245 240 242 247 255 261
173 174 177 185 189 190 189 187 188 187 188 193 194 193 192 190 192 194 198 204 199 194 197 196 193 192 190 188 189 189 189 193 198 199 201 205 206 207 210 209 206 202 198 200 204 204 203 203 200 193 196 203 209 212 214 216 216 215 214 210 209 210 204 202 216 219 221 226 222 217 262 257 255 257 258 256 255 257 261 268 268 253 237 225 224 242 266 275
173 173 176 184 188 190 187 181 183 187 189 193 193 189 189 189 191 193 194 199 201 199 200 200 197 197 197 193 191 190 190 193 198 201 204 207 209 209 208 206 206 204 202 201 202 205 204 202 202 203 207 211 213 214 215 216 218 218 218 216 213 211 208 204 206 216 215 223 236 240 264 260 255 253 256 256 254 256 259 258 251 235 217 212 223 261 287 288
175 174 175 182 186 189 185 178 179 185 188 190 190 187 186 186 190 193 189 191 197 198 195 195 196 198 201 201 196 192 192 195 199 203 206 209 212 211 209 208 206 205 206 204 200 203 205 202 200 201 210 214 213 215 217 216 217 217 218 218 213 211 212 211 217 223 214 219 228 227 261 260 255 251 254 255 253 253 251 248 243 228 212 216 252 284 290 284
177 175 173 177 183 187 185 179 179 183 184 186 186 182 183 186 188 191 190 189 193 197 194 193 196 199 202 205 203 198 196 197 200 204 208 211 214 213 212 211 208 205 207 208 205 203 202 199 195 183 171 207 211 218 219 216 216 216 217 217 216 215 214 215 223 227 228 230 225 216 247 256 254 254 253 252 254 254 249 246 240 225 219 247 280 288 284 283
175 172 169 172 179 185 186 185 185 185 184 184 182 180 181 185 191 195 194 191 193 197 196 193 196 200 201 203 204 204 202 201 202 204 207 212 214 213 213 212 211 211 212 213 213 209 203 202 201 191 172 191 206 214 217 214 212 215 218 217 218 218 216 218 222 223 233 235 225 224 240 249 253 254 250 248 256 256 246 241 237 230 243 268 279 280 282 288
172 166 164 169 175 181 184 187 188 186 183 181 179 179 181 182 188 194 194 192 192 195 196 194 193 194 198 199 196 198 202 204 207 208 209 211 212 212 213 211 211 214 215 214 215 213 208 207 210 210 209 213 215 218 220 217 214 218 221 220 219 219 219 220 222 224 229 231 230 234 241 246 251 249 244 246 254 252 242 238 239 244 258 270 275 278 284 288
173 165 164 166 171 177 180 183 186 185 183 181 178 178 183 183 183 185 189 191 192 194 193 194 193 191 193 196 193 194 200 203 208 212 212 211 211 211 211 210 209 211 213 212 212 212 208 208 215 218 218 221 222 224 226 224 222 224 224 222 221 220 220 220 223 227 228 230 239 242 244 249 251 249 250 253 256 256 254 252 253 258 264 271 275 278 283 286
175 167 167 168 169 174 178 181 185 185 183 182 180 179 183 185 182 181 184 188 192 194 191 189 194 196 196 196 195 194 195 199 204 209 210 210 209 208 205 203 204 206 208 209 211 211 210 212 216 217 218 222 224 226 230 228 230 232 229 227 226 223 224 225 227 230 230 232 241 246 249 253 255 256 258 259 260 262 263 264 264 265 268 272 275 278 281 285
178 171 168 170 173 177 181 185 188 188 183 181 181 181 184 186 184 182 183 184 187 193 194 189 190 197 199 199 198 195 193 195 201 205 209 210 209 207 201 197 199 201 202 205 207 208 211 214 218 218 219 223 225 229 233 233 236 236 233 232 231 229 231 234 235 236 236 241 247 251 257 261 262 262 263 264 265 265 265 266 266 267 267 267 268 275 282 286
180 176 173 173 177 181 183 185 186 185 182 180 181 183 186 188 185 183 184 185 184 188 195 196 192 194 199 199 200 201 202 203 205 206 209 209 207 207 202 198 198 197 198 203 205 206 209 213 217 219 220 224 227 230 233 236 239 240 240 239 237 235 236 237 238 238 239 245 251 255 260 264 264 263 264 266 266 265 264 264 264 265 265 265 269 278 284 284
185 183 181 180 181 182 183 183 182 180 180 181 182 183 186 190 188 184 184 188 189 189 193 197 193 192 196 200 202 206 208 211 212 212 214 214 213 213 210 206 203 196 194 198 203 207 208 209 214 216 218 224 228 229 231 233 237 240 242 241 237 235 234 235 236 236 238 245 251 252 255 259 262 265 266 267 268 269 269 268 267 265 265 267 274 280 279 276
187 185 184 184 183 180 181 182 180 180 182 183 182 182 186 189 189 186 183 186 192 194 193 195 194 192 193 199 205 208 209 210 213 217 222 225 226 223 220 217 215 209 202 198 199 204 208 208 210 211 214 221 225 226 225 224 225 235 238 237 235 234 235 237 239 240 242 245 248 248 252 258 264 268 269 272 275 277 279 280 278 271 266 266 269 272 271 269
Height
3035 3039 3044 3048 3052 3056 3060 3064 3067 3070 3074 3077 3081 3084 3088 3092 3095 3098 3101 3103 3106 3109 3111 3113 3116 3118 3121 3123 3126 3128 3130 3132 3134 3135 3138 3141 3144 3147 3149 3150 3152 3154 3156 3158 3159 3160 3162 3166 3169 3173 3175 3177 3179 3181 3182 3183 3185 3186 3187 3188 3188 3189 3191 3192 3193 3194 3195 3196 3196 3196 3196 3197 3197 3198 3198 3199 3199 3200 3201 3202 3202 3203 3204 3204 3204 3205 3205 3206
3030 3035 3040 3045 3049 3053 3057 3061 3064 3068 3071 3074 3078 3081 3086 3089 3093 3096 3098 3101 3104 3107 3109 3112 3114 3117 3120 3123 3125 3127 3128 3130 3132 3133 3137 3140 3142 3145 3147 3148 3150 3151 3154 3156 3157 3158 3160 3164 3167 3171 3173 3175 3177 3179 3180 3182 3183 3185 3185 3186 3187 3188 3190 3192 3192 3193 3194 3195 3196 3196 3196 3196 3197 3197 3197 3198 3199 3199 3200 3201 3202 3202 3203 3203 3204 3204 3205 3205
3026 3031 3036 3041 3046 3050 3054 3058 3062 3065 3068 3071 3075 3079 3083 3087 3090 3093 3096 3099 3102 3105 3107 3110 3113 3116 3119 3122 3124 3125 3127 3129 3129 3132 3136 3139 3141 3144 3146 3147 3148 3150 3152 3154 3155 3156 3158 3162 3166 3169 3171 3173 3175 3177 3179 3180 3182 3184 3184 3184 3186 3187 3189 3191 3191 3192 3193 3194 3195 3195 3195 3196 3196 3196 3196 3197 3198 3198 3199 3200 3201 3202 3202 3203 3203 3204 3204 3205
3022 3027 3033 3037 3042 3046 3050 3055 3058 3062 3065 3069 3072 3076 3080 3085 3088 3091 3094 3097 3100 3103 3106 3109 3111 3115 3118 3120 3122 3124 3126 3127 3128 3133 3136 3138 3140 3143 3144 3145 3146 3148 3150 3152 3154 3155 3157 3162 3165 3168 3170 3171 3173 3176 3178 3179 3181 3182 3182 3183 3185 3187 3188 3189 3190 3191 3192 3193 3194 3194 3194 3195 3195 3195 3195 3196 3196 3197 3198 3199 3200 3201 3202 3202 3203 3203 3204 3204
3017 3023 3029 3034 3038 3043 3047 3051 3055 3059 3063 3067 3070 3074 3078 3082 3086 3089 3092 3095 3098 3101 3104 3107 3110 3113 3116 3118 3121 3122 3125 3127 3129 3133 3135 3136 3139 3142 3143 3144 3145 3147 3148 3150 3152 3153 3156 3160 3163 3166 3168 3170 3171 3173 3175 3178 3180 3180 3181 3182 3184 3185 3186 3188 3188 3189 3190 3191 3192 3193 3193 3194 3194 3194 3194 3194 3195 3196 3198 3198 3199 3200 3200 3201 3202 3202 3203 3203
3014 3018 3024 3031 3036 3040 3044 3048 3052 3056 3060 3064 3068 3071 3075 3079 3083 3087 3090 3094 3097 3100 3103 3106 3109 3111 3113 3116 3119 3121 3123 3126 3129 3131 3133 3135 3138 3140 3142 3142 3144 3145 3146 3148 3150 3151 3154 3158 3161 3164 3166 3168 3169 3171 3173 3176 3177 3178 3179 3181 3182 3184 3185 3186 3187 3188 3189 3190 3191 3192 3193 3193 3193 3193 3193 3193 3194 3196 3196 3197 3197 3198 3199 3199 3200 3201 3202 3202
3010 3014 3019 3027 3032 3036 3041 3045 3049 3053 3058 3062 3065 3069 3073 3077 3081 3085 3089 3092 3095 3098 3101 3104 3107 3109 3112 3114 3117 3119 3122 3125 3128 3130 3132 3135 3137 3139 3140 3141 3142 3144 3145 3146 3147 3149 3151 3154 3157 3160 3163 3166 3167 3169 3172 3174 3174 3175 3177 3179 3181 3183 3184 3185 3185 3187 3188 3189 3190 3191 3191 3191 3192 3192 3191 3192 3193 3193 3194 3195 3196 3196 3197 3198 3199 3200 3201 3201
3007 3011 3015 3022 3029 3034 3038 3043 3047 3051 3056 3060 3063 3067 3071 3075 3079 3083 3087 3090 3093 3097 3100 3102 3105 3107 3110 3113 3116 3118 3121 3124 3127 3129 3131 3133 3135 3137 3138 3139 3141 3142 3144 3145 3146 3147 3149 3150 3153 3156 3160 3163 3165 3168 3171 3172 3172 3174 3176 3178 3179 3181 3183 3184 3184 3185 3187 3188 3188 3189 3190 3190 3190 3190 3190 3191 3191 3192 3193 3194 3194 3195 3196 3197 3198 3199 3199 3200
3003 3008 3012 3018 3025 3031 3036 3040 3045 3049 3053 3057 3060 3064 3068 3073 3077 3081 3085 3088 3091 3095 3098 3100 3103 3106 3108 3112 3115 3117 3120 3124 3126 3128 3130 3131 3133 3135 3137 3138 3139 3141 3142 3143 3144 3146 3147 3148 3151 3154 3158 3161 3163 3167 3169 3169 3172 3174 3176 3178 3179 3180 3181 3182 3183 3184 3185 3186 3186 3187 3188 3189 3189 3188 3188 3189 3190 3190 3191 3192 3193 3194 3195 3195 3196 3197 3198 3199
2998 3003 3009 3014 3019 3027 3034 3039 3042 3046 3051 3054 3058 3061 3066 3070 3074 3079 3082 3086 3089 3092 3095 3098 3101 3104 3106 3110 3113 3115 3120 3123 3125 3126 3128 3129 3132 3134 3136 3137 3139 3140 3141 3141 3142 3144 3146 3148 3150 3153 3157 3160 3161 3165 3167 3167 3170 3173 3174 3176 3177 3178 3179 3180 3181 3182 3183 3184 3185 3186 3187 3187 3187 3187 3187 3188 3188 3189 3190 3191 3192 3193 3193 3194 3195 3196 3196 3197
2993 2999 3005 3011 3015 3021 3029 3036 3040 3043 3047 3051 3055 3059 3063 3068 3072 3076 3080 3084 3087 3090 3093 3097 3100 3102 3104 3108 3111 3114 3118 3121 3123 3125 3127 3128 3131 3134 3136 3137 3138 3139 3140 3140 3141 3143 3146 3147 3149 3152 3155 3157 3159 3162 3164 3166 3170 3171 3172 3174 3174 3176 3177 3178 3180 3180 3181 3183 3184 3185 3185 3185 3185 3185 3186 3187 3187 3188 3189 3190 3191 3191 3192 3192 3193 3194 3195 3196
2990 2995 3001 3008 3012 3016 3023 3029 3036 3040 3044 3048 3052 3057 3061 3065 3070 3074 3078 3081 3084 3088 3091 3095 3098 3100 3103 3105 3109 3114 3117 3119 3122 3123 3125 3128 3131 3134 3136 3137 3138 3139 3139 3140 3141 3143 3145 3145 3147 3150 3152 3153 3156 3160 3163 3167 3170 3170 3171 3172 3172 3173 3174 3176 3178 3178 3180 3181 3182 3183 3183 3182 3182 3184 3185 3185 3186 3187 3187 3188 3189 3190 3190 3191 3192 3193 3193 3195
2987 2992 2998 3004 3009 3014 3019 3025 3031 3037 3041 3045 3050 3054 3058 3063 3068 3072 3076 3079 3082 3085 3089 3093 3095 3098 3101 3103 3107 3112 3115 3117 3120 3122 3124 3127 3129 3132 3134 3136 3137 3138 3138 3139 3140 3141 3142 3143 3146 3148 3150 3151 3154 3158 3161 3166 3168 3168 3170 3170 3171 3171 3171 3173 3176 3176 3178 3179 3180 3181 3180 3179 3181 3183 3184 3184 3185 3185 3186 3186 3187 3188 3189 3190 3190 3191 3192 3193
2984 2989 2994 3000 3005 3011 3016 3021 3027 3034 3038 3043 3048 3052 3056 3060 3065 3070 3074 3078 3080 3082 3086 3089 3092 3096 3099 3102 3107 3110 3112 3115 3118 3120 3123 3125 3128 3130 3132 3134 3136 3137 3137 3138 3138 3139 3140 3141 3143 3146 3148 3151 3154 3157 3160 3164 3166 3167 3168 3168 3168 3169 3169 3171 3174 3175 3176 3177 3178 3179 3178 3178 3181 3182 3182 3182 3183 3184 3184 3185 3186 3187 3187 3188 3189 3190 3191 3192
2981 2986 2991 2996 3001 3008 3013 3018 3025 3032 3036 3040 3045 3050 3054 3058 3062 3068 3072 3074 3077 3080 3083 3087 3090 3093 3096 3100 3104 3107 3111 3113 3115 3119 3121 3124 3127 3129 3131 3133 3134 3136 3137 3138 3139 3139 3139 3139 3141 3144 3146 3149 3153 3156 3159 3161 3163 3165 3166 3165 3165 3166 3168 3170 3172 3173 3175 3176 3176 3177 3176 3176 3179 3181 3181 3181 3181 3182 3183 3183 3184 3185 3186 3187 3187 3188 3189 3190
2979 2984 2987 2992 2998 3004 3010 3014 3021 3028 3033 3037 3043 3047 3051 3055 3060 3064 3068 3070 3074 3078 3081 3084 3087 3090 3093 3097 3100 3104 3107 3110 3114 3118 3119 3122 3125 3128 3130 3131 3133 3135 3136 3138 3139 3139 3138 3139 3141 3144 3146 3148 3150 3153 3158 3160 3161 3162 3163 3163 3163 3164 3166 3168 3170 3171 3173 3174 3174 3175 3174 3175 3177 3179 3179 3179 3180 3181 3181 3181 3182 3183 3184 3185 3186 3187 3188 3188
2976 2981 2985 2989 2995 3001 3006 3010 3015 3023 3029 3034 3039 3044 3047 3052 3056 3061 3065 3067 3071 3076 3079 3082 3085 3090 3093 3094 3096 3099 3103 3108 3112 3115 3117 3121 3123 3126 3128 3130 3131 3134 3135 3137 3138 3138 3138 3139 3140 3143 3145 3146 3148 3151 3155 3157 3157 3159 3160 3161 3162 3163 3165 3166 3167 3169 3171 3172 3172 3173 3173 3173 3176 3177 3177 3178 3178 3179 3179 3180 3181 3182 3183 3183 3184 3185 3186 3187
2973 2978 2982 2986 2992 2997 3002 3007 3013 3020 3026 3030 3035 3040 3043 3049 3053 3057 3061 3063 3066 3072 3076 3079 3084 3088 3088 3088 3091 3095 3101 3107 3111 3113 3116 3118 3121 3124 3127 3130 3131 3132 3134 3135 3136 3137 3137 3139 3140 3142 3143 3144 3145 3147 3148 3150 3154 3158 3159 3160 3161 3162 3163 3164 3166 3168 3169 3170 3171 3171 3170 3171 3174 3175 3176 3177 3177 3177 3178 3178 3179 3180 3181 3181 3182 3183 3184 3185
2970 2975 2979 2983 2989 2993 2998 3005 3011 3017 3022 3027 3032 3035 3039 3045 3051 3055 3056 3056 3060 3064 3066 3068 3073 3077 3077 3081 3088 3094 3100 3104 3108 3110 3112 3115 3118 3122 3125 3128 3131 3131 3132 3133 3134 3135 3136 3138 3139 3139 3140 3140 3142 3143 3145 3149 3155 3158 3159 3160 3161 3161 3162 3163 3166 3167 3168 3169 3168 3169 3169 3170 3172 3173 3174 3175 3175 3175 3176 3177 3177 3178 3178 3179 3180 3181 3182 3183
2966 2971 2976 2980 2985 2990 2996 3002 3008 3014 3018 3022 3026 3027 3029 3035 3042 3048 3050 3053 3058 3060 3062 3063 3068 3072 3074 3081 3088 3093 3098 3101 3104 3107 3109 3113 3117 3119 3122 3125 3129 3130 3130 3131 3132 3134 3136 3136 3134 3135 3137 3140 3142 3144 3147 3152 3156 3158 3159 3160 3160 3161 3161 3163 3165 3165 3166 3166 3166 3167 3167 3167 3169 3170 3172 3173 3172 3173 3174 3174 3175 3176 3176 3177 3178 3179 3180 3181
2961 2966 2971 2976 2982 2987 2992 2999 3004 3009 3013 3017 3019 3017 3018 3021 3024 3028 3035 3045 3055 3059 3064 3067 3070 3072 3075 3081 3086 3091 3096 3098 3101 3104 3106 3111 3115 3117 3119 3122 3124 3126 3128 3131 3133 3134 3134 3132 3132 3135 3139 3142 3144 3146 3149 3153 3156 3158 3159 3159 3159 3159 3160 3161 3163 3163 3164 3163 3163 3165 3164 3164 3165 3167 3169 3170 3169 3170 3172 3172 3173 3173 3174 3175 3176 3177 3178 3179
2956 2962 2966 2972 2978 2983 2989 2997 3002 3007 3010 3012 3015 3016 3017 3019 3020 3023 3028 3036 3047 3054 3059 3065 3068 3071 3074 3080 3084 3088 3093 3096 3099 3101 3104 3108 3111 3114 3117 3119 3121 3123 3127 3130 3131 3132 3132 3130 3132 3137 3140 3143 3145 3147 3149 3152 3154 3157 3158 3158 3157 3157 3158 3159 3160 3161 3161 3161 3162 3162 3161 3161 3163 3164 3165 3166 3166 3167 3169 3170 3170 3171 3171 3172 3174 3175 3176 3177
2951 2957 2963 2968 2974 2980 2987 2995 3000 3005 3006 3004 3009 3015 3018 3021 3024 3028 3032 3036 3043 3049 3055 3061 3066 3070 3074 3078 3082 3086 3089 3093 3096 3098 3102 3104 3107 3112 3114 3117 3121 3124 3126 3126 3126 3128 3127 3126 3131 3137 3140 3142 3145 3147 3148 3149 3151 3153 3155 3156 3155 3156 3157 3156 3157 3159 3159 3159 3160 3160 3159 3158 3160 3161 3161 3162 3164 3164 3166 3166 3167 3167 3168 3169 3171 3172 3173 3174
2946 2953 2959 2964 2971 2977 2984 2993 2997 3000 3003 3001 3005 3011 3015 3020 3023 3027 3035 3040 3044 3047 3053 3060 3065 3069 3073 3077 3082 3084 3087 3092 3095 3097 3099 3102 3106 3110 3113 3117 3121 3123 3123 3123 3126 3125 3123 3125 3132 3136 3139 3141 3144 3146 3147 3147 3148 3149 3151 3153 3154 3155 3156 3155 3156 3157 3157 3158 3158 3158 3157 3154 3155 3157 3157 3160 3161 3161 3162 3163 3163 3164 3165 3167 3168 3169 3170 3171
2940 2947 2954 2961 2967 2973 2982 2990 2990 2993 3001 3001 3001 3007 3013 3018 3022 3028 3036 3043 3046 3047 3050 3055 3061 3065 3070 3076 3080 3082 3085 3090 3094 3097 3099 3102 3105 3108 3112 3117 3119 3119 3120 3123 3126 3125 3125 3128 3132 3135 3138 3140 3143 3144 3145 3146 3147 3148 3149 3150 3152 3154 3155 3154 3155 3155 3156 3156 3156 3157 3156 3150 3151 3153 3154 3157 3157 3157 3159 3159 3160 3161 3163 3164 3165 3166 3168 3168
2934 2942 2949 2956 2963 2971 2978 2982 2984 2988 2995 2998 3000 3006 3011 3015 3022 3030 3038 3044 3045 3045 3047 3051 3056 3061 3066 3071 3075 3080 3084 3086 3090 3095 3099 3102 3106 3108 3111 3114 3115 3116 3119 3123 3125 3124 3125 3128 3131 3133 3136 3138 3141 3142 3143 3145 3147 3147 3147 3149 3151 3152 3154 3154 3153 3154 3154 3153 3154 3155 3154 3149 3148 3150 3152 3153 3153 3154 3155 3155 3157 3159 3160 3161 3162 3164 3165 3165
2927 2936 2944 2952 2958 2964 2967 2973 2980 2984 2987 2992 2998 3005 3010 3015 3022 3029 3038 3044 3042 3042 3046 3050 3054 3058 3063 3068 3072 3077 3080 3082 3088 3092 3095 3100 3104 3107 3110 3111 3112 3114 3117 3121 3121 3119 3121 3125 3128 3132 3134 3136 3137 3139 3142 3145 3145 3145 3146 3149 3150 3151 3153 3153 3153 3153 3152 3152 3152 3152 3152 3150 3146 3146 3150 3150 3150 3151 3152 3153 3154 3156 3157 3158 3160 3161 3162 3163
2920 2930 2939 2946 2952 2957 2962 2968 2973 2977 2982 2990 2997 3003 3009 3014 3021 3027 3034 3040 3038 3038 3043 3048 3052 3056 3060 3066 3070 3074 3075 3079 3084 3087 3092 3097 3100 3103 3107 3109 3111 3113 3116 3116 3115 3116 3119 3122 3125 3128 3131 3132 3134 3138 3142 3143 3144 3144 3147 3148 3149 3150 3151 3152 3152 3152 3151 3151 3150 3149 3150 3149 3143 3143 3147 3148 3148 3149 3150 3151 3152 3153 3155 3156 3157 3158 3159 3160
2914 2924 2933 2941 2949 2957 2963 2965 2967 2972 2981 2989 2996 3001 3006 3011 3017 3023 3029 3033 3032 3033 3038 3044 3049 3052 3056 3062 3066 3070 3073 3077 3081 3085 3090 3094 3097 3100 3103 3107 3111 3114 3115 3115 3114 3117 3119 3121 3123 3126 3127 3129 3133 3138 3140 3142 3142 3144 3146 3147 3148 3149 3149 3150 3151 3150 3151 3149 3147 3148 3149 3147 3142 3140 3144 3145 3145 3147 3149 3150 3151 3151 3152 3153 3154 3155 3156 3157
2907 2917 2927 2936 2943 2951 2957 2962 2965 2971 2979 2986 2993 2999 3005 3009 3012 3017 3022 3024 3026 3030 3035 3040 3045 3048 3052 3058 3063 3068 3072 3075 3079 3084 3089 3092 3096 3099 3102 3106 3111 3114 3115 3115 3117 3118 3118 3120 3122 3123 3125 3128 3133 3136 3138 3141 3142 3144 3145 3145 3147 3147 3148 3149 3149 3149 3150 3146 3144 3146 3147 3147 3142 3138 3139 3142 3143 3145 3146 3148 3149 3150 3150 3151 3151 3152 3153 3153
2901 2911 2921 2928 2934 2941 2948 2955 2961 2967 2974 2982 2989 2996 3002 3005 3006 3008 3012 3015 3021 3028 3031 3036 3042 3045 3049 3054 3059 3064 3070 3073 3076 3080 3084 3089 3093 3096 3099 3103 3107 3111 3113 3112 3114 3116 3117 3118 3119 3120 3123 3127 3131 3134 3136 3139 3141 3142 3143 3143 3145 3146 3147 3148 3147 3148 3148 3144 3143 3144 3145 3145 3141 3136 3137 3140 3141 3143 3144 3145 3146 3147 3148 3148 3149 3149 3150 3150
2895 2906 2915 2922 2930 2936 2941 2946 2953 2963 2971 2977 2985 2992 2996 2999 3000 3001 3004 3010 3017 3021 3025 3030 3036 3041 3046 3052 3056 3061 3066 3070 3073 3077 3080 3084 3087 3089 3093 3095 3098 3102 3105 3106 3109 3112 3114 3115 3116 3118 3121 3125 3128 3131 3133 3135 3137 3139 3140 3141 3143 3144 3146 3146 3146 3146 3145 3142 3142 3143 3143 3141 3135 3133 3136 3137 3139 3141 3142 3142 3143 3144 3145 3146 3146 3147 3147 3147
2891 2902 2911 2919 2927 2932 2938 2944 2948 2957 2967 2973 2980 2988 2991 2993 2994 2994 2998 3003 3008 3013 3020 3026 3032 3037 3041 3047 3053 3058 3063 3067 3070 3074 3080 3084 3086 3089 3092 3094 3096 3097 3097 3101 3106 3109 3113 3115 3114 3116 3118 3121 3125 3126 3128 3130 3132 3135 3136 3138 3140 3142 3144 3145 3145 3145 3143 3141 3141 3142 3143 3137 3131 3132 3134 3134 3136 3138 3138 3139 3140 3141 3142 3143 3143 3144 3144 3145
2888 2898 2907 2917 2925 2930 2936 2942 2945 2953 2962 2968 2975 2981 2985 2987 2989 2991 2993 2997 3003 3010 3016 3022 3029 3036 3041 3044 3050 3054 3059 3065 3068 3071 3077 3082 3085 3087 3088 3091 3094 3095 3097 3101 3103 3105 3108 3108 3109 3112 3115 3118 3121 3124 3126 3129 3131 3133 3135 3137 3137 3137 3139 3141 3141 3141 3139 3138 3139 3141 3139 3132 3128 3130 3131 3131 3133 3134 3135 3136 3137 3138 3139 3139 3140 3141 3142 3142
2887 2897 2905 2914 2922 2928 2932 2937 2944 2950 2957 2963 2969 2973 2976 2980 2985 2988 2989 2993 3001 3008 3015 3023 3027 3033 3040 3045 3049 3053 3056 3061 3066 3071 3074 3076 3078 3079 3081 3084 3087 3091 3094 3096 3099 3101 3102 3103 3104 3108 3112 3115 3119 3122 3125 3128 3130 3131 3133 3134 3133 3133 3135 3137 3137 3136 3136 3137 3137 3136 3133 3127 3126 3128 3129 3131 3131 3132 3133 3133 3134 3135 3136 3137 3137 3138 3139 3139
2885 2895 2904 2909 2914 2921 2929 2936 2942 2947 2951 2957 2962 2966 2968 2972 2976 2980 2983 2986 2992 2998 3009 3020 3025 3029 3037 3043 3046 3051 3055 3057 3061 3067 3070 3073 3075 3076 3079 3081 3083 3086 3088 3090 3093 3096 3099 3102 3104 3107 3111 3114 3117 3120 3123 3125 3126 3127 3128 3128 3129 3132 3135 3135 3135 3135 3136 3135 3132 3130 3127 3124 3126 3126 3127 3129 3129 3130 3132 3132 3133 3134 3134 3134 3135 3136 3136 3136
2877 2887 2897 2904 2909 2915 2924 2933 2939 2943 2948 2951 2954 2959 2964 2968 2971 2975 2979 2981 2985 2992 3000 3009 3016 3021 3028 3035 3040 3044 3050 3055 3058 3062 3066 3070 3072 3072 3075 3079 3080 3082 3084 3087 3090 3092 3096 3101 3104 3107 3110 3112 3115 3118 3120 3122 3123 3124 3124 3125 3129 3133 3134 3133 3134 3134 3135 3133 3128 3125 3124 3123 3124 3124 3124 3126 3127 3127 3129 3130 3131 3131 3131 3132 3133 3133 3133 3133
2871 2884 2893 2899 2906 2913 2921 2929 2935 2939 2944 2946 2950 2955 2960 2965 2969 2973 2978 2980 2984 2992 2997 3002 3009 3015 3017 3023 3029 3035 3042 3048 3053 3057 3061 3064 3064 3064 3069 3073 3076 3080 3083 3086 3090 3092 3095 3099 3102 3105 3106 3109 3113 3115 3117 3119 3120 3120 3121 3124 3127 3128 3128 3129 3131 3131 3132 3131 3126 3122 3121 3120 3120 3121 3123 3125 3126 3126 3127 3128 3128 3129 3130 3130 3130 3131 3131 3131
2869 2880 2890 2895 2903 2913 2919 2925 2931 2936 2938 2940 2946 2952 2956 2962 2967 2970 2976 2981 2982 2987 2995 2999 3004 3011 3015 3016 3021 3029 3035 3040 3045 3049 3053 3056 3057 3059 3064 3068 3073 3077 3081 3085 3089 3091 3094 3097 3100 3102 3104 3107 3110 3110 3111 3113 3116 3119 3122 3123 3124 3124 3124 3125 3127 3127 3127 3128 3125 3121 3119 3115 3114 3118 3121 3123 3124 3125 3125 3126 3126 3127 3127 3127 3127 3128 3128 3128
2864 2873 2884 2893 2900 2909 2917 2923 2927 2930 2931 2935 2942 2947 2953 2959 2964 2967 2972 2978 2980 2982 2989 2995 2999 3005 3013 3017 3021 3026 3032 3038 3042 3044 3046 3049 3052 3055 3060 3065 3069 3074 3079 3084 3087 3090 3093 3095 3097 3100 3103 3104 3104 3104 3106 3110 3114 3116 3118 3120 3120 3122 3123 3124 3124 3124 3124 3124 3123 3121 3116 3110 3110 3115 3117 3119 3121 3123 3123 3123 3124 3124 3124 3125 3125 3125 3126 3126
2863 2870 2879 2889 2897 2905 2912 2916 2918 2922 2928 2935 2939 2944 2950 2955 2960 2965 2970 2976 2979 2980 2984 2990 2995 3000 3006 3013 3018 3023 3029 3035 3040 3042 3044 3046 3049 3051 3055 3061 3066 3071 3077 3081 3084 3086 3089 3092 3094 3097 3098 3099 3100 3103 3107 3110 3112 3112 3113 3114 3115 3117 3119 3121 3121 3120 3120 3121 3120 3119 3112 3103 3106 3112 3113 3116 3119 3119 3121 3121 3121 3122 3122 3122 3123 3123 3124 3123
2862 2867 2872 2882 2890 2897 2903 2906 2912 2920 2926 2930 2935 2941 2948 2953 2957 2964 2969 2975 2980 2982 2985 2990 2995 3000 3004 3008 3014 3019 3024 3029 3034 3037 3040 3042 3045 3049 3054 3059 3065 3071 3075 3077 3081 3084 3087 3091 3093 3095 3096 3097 3100 3103 3105 3107 3108 3110 3111 3111 3112 3115 3114 3115 3115 3115 3118 3118 3116 3118 3108 3094 3100 3110 3110 3113 3116 3117 3119 3119 3119 3120 3119 3120 3121 3121 3121 3121
2859 2864 2872 2881 2886 2890 2897 2903 2910 2918 2922 2925 2933 2941 2946 2951 2955 2961 2967 2972 2976 2979 2983 2987 2992 2998 3003 3007 3012 3018 3023 3028 3032 3034 3037 3041 3045 3050 3056 3060 3064 3069 3073 3074 3078 3081 3085 3088 3090 3092 3095 3096 3098 3101 3102 3104 3105 3106 3106 3107 3110 3112 3111 3113 3113 3113 3115 3113 3112 3117 3105 3086 3094 3107 3107 3109 3113 3114 3117 3117 3118 3118 3117 3118 3119 3118 3119 3119
2858 2865 2873 2881 2885 2888 2892 2896 2902 2911 2919 2925 2933 2940 2946 2950 2953 2956 2961 2966 2971 2973 2976 2980 2985 2991 2998 3003 3008 3013 3019 3024 3029 3033 3037 3040 3045 3051 3055 3058 3061 3064 3066 3067 3070 3075 3079 3082 3085 3089 3093 3096 3098 3098 3097 3097 3098 3099 3101 3105 3107 3109 3112 3113 3112 3113 3113 3108 3109 3113 3098 3082 3091 3103 3104 3107 3110 3111 3114 3115 3115 3116 3115 3116 3116 3116 3117 3117
2854 2864 2872 2879 2884 2887 2890 2893 2897 2903 2912 2921 2929 2936 2943 2947 2951 2954 2957 2961 2966 2969 2971 2974 2980 2987 2993 2998 3004 3009 3014 3018 3023 3029 3034 3038 3044 3049 3052 3055 3059 3060 3062 3065 3068 3071 3074 3076 3078 3082 3086 3089 3088 3086 3084 3087 3093 3096 3098 3101 3104 3107 3109 3109 3111 3112 3105 3101 3104 3101 3087 3083 3092 3099 3101 3106 3108 3109 3112 3113 3113 3114 3113 3114 3114 3114 3115 3115
2847 2854 2862 2870 2878 2883 2888 2893 2897 2899 2905 2914 2924 2932 2938 2943 2948 2953 2957 2961 2964 2968 2970 2973 2978 2984 2990 2994 3000 3006 3011 3015 3020 3024 3029 3034 3039 3044 3048 3052 3055 3058 3061 3064 3066 3070 3072 3072 3072 3073 3074 3075 3075 3076 3079 3085 3091 3091 3093 3097 3100 3103 3105 3107 3108 3102 3095 3097 3097 3088 3083 3088 3093 3095 3099 3103 3106 3107 3110 3111 3112 3112 3111 3112 3112 3112 3112 3112
2845 2847 2851 2857 2867 2876 2883 2888 2894 2900 2905 2912 2919 2927 2933 2938 2944 2949 2954 2957 2960 2965 2969 2973 2976 2979 2984 2989 2995 3001 3007 3012 3016 3020 3025 3029 3034 3040 3045 3049 3053 3056 3059 3061 3063 3066 3067 3067 3068 3069 3071 3072 3075 3078 3081 3085 3086 3086 3089 3094 3096 3099 3101 3101 3096 3090 3093 3097 3088 3081 3086 3088 3087 3093 3098 3100 3103 3106 3107 3108 3109 3109 3109 3109 3109 3109 3109 3110
2845 2848 2852 2855 2860 2868 2876 2883 2891 2899 2907 2914 2919 2924 2929 2934 2938 2941 2946 2952 2956 2960 2963 2968 2972 2974 2978 2984 2989 2996 3003 3009 3013 3017 3021 3025 3030 3036 3041 3045 3049 3051 3055 3057 3059 3061 3063 3063 3064 3067 3071 3073 3075 3078 3080 3082 3084 3085 3088 3090 3092 3095 3094 3090 3087 3088 3094 3091 3080 3081 3087 3083 3083 3092 3096 3097 3102 3103 3103 3105 3105 3105 3106 3106 3106 3107 3107 3107
2844 2848 2854 2858 2861 2866 2873 2881 2889 2896 2904 2912 2918 2922 2926 2930 2933 2936 2940 2945 2950 2955 2957 2959 2965 2970 2975 2980 2985 2989 2995 3000 3006 3011 3016 3020 3025 3030 3035 3039 3042 3046 3050 3052 3055 3057 3060 3060 3063 3067 3070 3071 3075 3077 3078 3081 3083 3083 3085 3087 3089 3089 3086 3084 3085 3089 3092 3085 3079 3084 3086 3077 3081 3089 3091 3094 3099 3100 3100 3101 3101 3102 3103 3103 3103 3104 3104 3104
2843 2845 2849 2856 2862 2868 2873 2880 2886 2894 2902 2909 2914 2918 2922 2925 2928 2932 2936 2939 2942 2947 2951 2953 2958 2965 2971 2976 2980 2983 2988 2993 2998 3004 3009 3014 3019 3024 3028 3031 3035 3041 3046 3049 3052 3055 3057 3060 3063 3066 3069 3071 3073 3074 3076 3079 3080 3080 3083 3084 3083 3082 3081 3081 3082 3086 3087 3081 3080 3087 3083 3072 3074 3083 3087 3091 3094 3094 3096 3097 3097 3098 3099 3099 3100 3100 3100 3101
2843 2847 2849 2852 2858 2865 2871 2878 2885 2892 2899 2904 2908 2913 2918 2922 2925 2928 2932 2936 2938 2941 2945 2950 2956 2963 2969 2974 2977 2981 2987 2992 2998 3002 3007 3011 3015 3020 3024 3027 3032 3037 3042 3046 3050 3052 3055 3059 3061 3065 3067 3067 3068 3071 3074 3075 3077 3079 3077 3074 3073 3073 3074 3076 3078 3082 3082 3078 3082 3086 3076 3064 3069 3078 3083 3086 3088 3089 3091 3092 3093 3094 3094 3095 3096 3096 3096 3097
2843 2846 2849 2850 2853 2861 2869 2876 2884 2889 2893 2897 2903 2909 2914 2919 2924 2926 2929 2935 2940 2943 2946 2952 2957 2962 2966 2971 2974 2980 2988 2994 2999 3005 3009 3013 3016 3020 3023 3026 3030 3033 3037 3042 3046 3049 3053 3055 3058 3062 3063 3063 3066 3069 3070 3074 3077 3073 3062 3058 3063 3067 3071 3075 3076 3077 3077 3078 3080 3075 3064 3064 3073 3077 3078 3082 3084 3085 3086 3088 3090 3090 3091 3091 3091 3091 3092 3092